Location: La Oliva
(42.2466°N, 2.9955°E)
Time: 10:08:57
(UTC+00:00)

Cosmos 2084 Rocket - Pass Details

Date: 22 April 2021
Orbit: 525 x 655 km, 62.8° (Epoch: 10 May)

Event Time Altitude Azimuth Distance (km) Brightness Sun altitude
Rises 19:14:58 0° 183° (S) 2,641 6.6 -7.3°
Reaches altitude 10° 19:17:27 10° 169° (S) 1,757 5.6 -7.7°
Maximum altitude 19:20:35 23° 116° (ESE) 1,154 4.4 -8.2°
Drops below altitude 10° 19:23:45 10° 63° (ENE) 1,786 5.6 -8.8°
Sets 19:26:17 0° 49° (NE) 2,696 6.6 -9.2°
